Powrót do katalogu

COSMOS 397 DEB *

AktywnyLEO
NORAD 5416·DEBRIS·🇷🇺 Russia

Wystrzelony Feb 25, 1971 z Baikonur Cosmodrome

Loading…

Następne Przeloty (najbliższe 24 godziny)

TLE

ŚwieżeSource: Space-Track

Epoka: Sep 13, 2026, 02:57 UTC

1 05416U 71015BN  26256.12326701  .00000605  00000-0  63828-3 0  9994
2 05416  65.7837 135.6250 0073522 272.6194 241.4363 13.80917333304969

Śledź COSMOS 397 DEB * w czasie rzeczywistym z AllMySat

Download on the App Store